TimeEST,TemperatureF,Dew PointF,Humidity,Sea Level PressureIn,VisibilityMPH,Wind Direction,Wind SpeedMPH,Gust SpeedMPH,PrecipitationIn,Events,Conditions,WindDirDegrees,DateUTC
12:53 AM,17.1,-0.9,45,30.04,10.0,SSW,6.9,-,N/A,,Partly Cloudy,210,2014-01-25 05:53:00
1:53 AM,17.1,3.0,54,30.00,10.0,South,5.8,-,N/A,,Partly Cloudy,190,2014-01-25 06:53:00
2:53 AM,18.0,3.0,52,29.96,10.0,South,12.7,-,N/A,,Partly Cloudy,190,2014-01-25 07:53:00
3:53 AM,19.9,3.0,48,29.92,10.0,SSW,10.4,-,N/A,,Clear,200,2014-01-25 08:53:00
4:53 AM,21.9,3.9,46,29.88,10.0,SSW,12.7,17.3,N/A,,Clear,200,2014-01-25 09:53:00
5:53 AM,21.9,5.0,48,29.86,10.0,SSW,9.2,-,N/A,,Clear,200,2014-01-25 10:53:00
6:53 AM,24.1,7.0,48,29.83,10.0,SSW,6.9,-,N/A,,Clear,210,2014-01-25 11:53:00
7:53 AM,25.0,10.0,53,29.79,10.0,SSW,8.1,-,N/A,,Clear,200,2014-01-25 12:53:00
8:53 AM,28.0,12.0,51,29.74,10.0,South,12.7,-,N/A,,Clear,190,2014-01-25 13:53:00
9:53 AM,30.9,15.1,52,29.70,10.0,SSW,19.6,27.6,N/A,,Clear,200,2014-01-25 14:53:00
10:53 AM,32.0,16.0,52,29.68,10.0,South,16.1,35.7,N/A,,Scattered Clouds,190,2014-01-25 15:53:00
11:53 AM,33.1,18.0,54,29.62,10.0,SSW,11.5,27.6,N/A,,Mostly Cloudy,200,2014-01-25 16:53:00
12:53 PM,33.1,19.0,56,29.55,10.0,SSW,15.0,23.0,N/A,,Overcast,200,2014-01-25 17:53:00
1:53 PM,34.0,18.0,52,29.52,10.0,SSW,12.7,25.3,N/A,,Overcast,210,2014-01-25 18:53:00
2:53 PM,32.0,14.0,48,29.48,10.0,SW,11.5,20.7,N/A,,Overcast,220,2014-01-25 19:53:00
3:53 PM,30.9,12.9,47,29.46,10.0,SW,10.4,18.4,N/A,,Overcast,220,2014-01-25 20:53:00
4:53 PM,28.0,19.0,69,29.45,2.5,SSW,6.9,-,0.00,Snow,Light Snow,210,2014-01-25 21:53:00
5:00 PM,27.0,19.9,75,29.45,1.8,SSW,9.2,-,0.00,Snow,Light Snow,210,2014-01-25 22:00:00
5:39 PM,26.1,21.9,84,29.43,3.0,South,8.1,-,0.00,Snow,Light Snow,190,2014-01-25 22:39:00
5:53 PM,27.0,21.9,81,29.43,1.5,SSW,6.9,-,0.00,Snow,Light Snow,200,2014-01-25 22:53:00
6:28 PM,26.1,21.9,84,29.44,0.8,SSW,5.8,-,0.01,Snow,Light Snow,210,2014-01-25 23:28:00
6:42 PM,26.1,23.0,88,29.43,1.0,SSW,8.1,-,0.02,Snow,Light Snow,210,2014-01-25 23:42:00
6:53 PM,26.1,21.9,84,29.43,1.2,SW,5.8,-,0.02,Snow,Light Snow,220,2014-01-25 23:53:00
7:14 PM,26.1,21.0,81,29.43,2.0,SW,8.1,19.6,0.00,Snow,Light Snow,220,2014-01-26 00:14:00
7:24 PM,26.1,19.0,75,29.44,4.0,SW,11.5,17.3,0.00,Snow,Light Snow,230,2014-01-26 00:24:00
7:53 PM,26.1,19.9,78,29.44,5.0,SSW,6.9,-,0.00,Snow,Light Snow,200,2014-01-26 00:53:00
8:53 PM,25.0,18.0,75,29.42,10.0,SW,5.8,-,0.00,,Overcast,230,2014-01-26 01:53:00
9:53 PM,25.0,18.0,75,29.42,10.0,SW,6.9,-,N/A,,Overcast,230,2014-01-26 02:53:00
10:53 PM,25.0,16.0,69,29.42,10.0,WSW,8.1,-,N/A,,Partly Cloudy,240,2014-01-26 03:53:00
11:53 PM,24.1,16.0,71,29.42,10.0,SW,5.8,-,N/A,,Clear,230,2014-01-26 04:53:00